Weather History for Massena, NY

Change the Weather History Date:

Thursday, February 20, 2014

  Actual Average Record
Temperature  
Mean Temperature 32 °F 19 °F  
Max Temperature 38 °F 29 °F 63 °F (1994)
Min Temperature 26 °F 9 °F -18 °F (1966)
Degree Days  
Heating Degree Days 33 46  
Month to date heating degree days 1022 966  
Since 1 July heating degree days 5804 5629  
Moisture  
Dew Point 27 °F    
Average Humidity 83    
Maximum Humidity 96    
Minimum Humidity 70    
Precipitation  
Precipitation 0.01 in 0.07 in 0.56 in (1971)
Month to date precipitation 0.66 1.22  
Year to date precipitation 2.12 3.40  
Sea Level Pressure  
Sea Level Pressure 30.11 in    
Wind  
Wind Speed 8 mph (SSW)    
Max Wind Speed 16 mph    
Max Gust Speed 22 mph    
Visibility 6 miles    
Events      
T = Trace of Precipitation, MM = Missing Value Source: NWS Daily Summary

Daily Weather History Graph

Daily Weather History Graph

Search for Another Location

Airport:

Trip Planner

Search our weather history database for the weather conditions in past years. The results will help you decide how hot, cold, wet, or windy it might be!

Date:

Astronomy

Feb. 20, 2014 Rise Set
Actual Time 6:52 AM EST 5:34 PM EST
Civil Twilight 6:22 AM EST 6:04 PM EST
Nautical Twilight 5:48 AM EST 6:38 PM EST
Astronomical Twilight 5:14 AM EST 7:12 PM EST
Moon 11:43 PM EST (2/20) 9:18 AM EST (2/20)
Length of Visible Light 11h 41m
Length of Day
10h 42m
Waning Gibbous, 71% of the Moon is Illuminated
Feb 20
Waning Gibbous
Feb 22
Last Quarter
Mar 1
New
Mar 8
First Quarter
Mar 16
Full

Hourly Weather History & Observations

Time (EST) Temp. Windchill Dew Point Humidity Pressure Visibility Wind Dir Wind Speed Gust Speed Precip Events Conditions
12:53 AM 30.9 °F 22.2 °F 27.0 °F 85% 29.97 in 7.0 mi SW 10.4 mph - N/A   Clear
1:53 AM 30.9 °F 22.2 °F 24.1 °F 76% 30.01 in 10.0 mi SW 10.4 mph 20.7 mph N/A   Clear
2:53 AM 28.9 °F 18.6 °F 21.9 °F 75% 30.04 in 10.0 mi SW 12.7 mph - N/A   Clear
3:53 AM 27.0 °F 17.3 °F 19.9 °F 75% 30.05 in 10.0 mi SW 10.4 mph - N/A   Clear
4:53 AM 27.0 °F 16.7 °F 19.9 °F 75% 30.08 in 10.0 mi SW 11.5 mph - N/A   Clear
5:53 AM 26.1 °F 14.5 °F 21.0 °F 81% 30.11 in 9.0 mi SW 13.8 mph - N/A   Clear
6:53 AM 26.1 °F 14.5 °F 21.0 °F 81% 30.13 in 6.0 mi SW 13.8 mph - N/A   Haze
7:53 AM 26.1 °F 16.2 °F 23.0 °F 88% 30.15 in 4.0 mi SW 10.4 mph - N/A   Clear
8:26 AM 28.0 °F 17.0 °F 24.1 °F 85% 30.14 in 3.0 mi SW 13.8 mph - N/A   Scattered Clouds
8:31 AM 28.0 °F 17.5 °F 25.0 °F 88% 30.15 in 2.5 mi SW 12.7 mph - N/A   Mostly Cloudy
8:53 AM 28.9 °F 18.6 °F 25.0 °F 85% 30.17 in 3.0 mi SW 12.7 mph - N/A   Mostly Cloudy
9:53 AM 32.0 °F 22.5 °F 27.0 °F 82% 30.17 in 4.0 mi SW 12.7 mph - N/A   Haze
10:27 AM 33.1 °F 24.9 °F 27.0 °F 78% 30.15 in 5.0 mi SW 10.4 mph - N/A   Haze
10:53 AM 35.1 °F 27.4 °F 28.0 °F 76% 30.16 in 6.0 mi SW 10.4 mph - N/A   Haze
11:23 AM 35.1 °F 26.4 °F 28.0 °F 76% 30.15 in 6.0 mi SW 12.7 mph - N/A   Haze
11:53 AM 35.1 °F 25.5 °F 28.0 °F 76% 30.17 in 6.0 mi SW 15.0 mph - N/A   Haze
12:37 PM 36.0 °F 29.6 °F 28.0 °F 73% 30.13 in 6.0 mi WSW 8.1 mph - N/A   Haze
12:53 PM 36.0 °F 30.3 °F 28.0 °F 73% 30.15 in 6.0 mi SW 6.9 mph - N/A   Haze
1:53 PM 36.0 °F 31.1 °F 28.0 °F 73% 30.14 in 6.0 mi SSW 5.8 mph - N/A   Haze
2:53 PM 37.0 °F 32.4 °F 28.0 °F 70% 30.14 in 6.0 mi SW 5.8 mph - N/A   Haze
3:53 PM 37.0 °F - 28.0 °F 70% 30.13 in 6.0 mi Calm Calm - N/A   Haze
4:53 PM 35.1 °F - 28.9 °F 78% 30.11 in 5.0 mi Calm Calm - N/A   Haze
5:53 PM 35.1 °F 32.2 °F 28.9 °F 78% 30.10 in 6.0 mi ENE 3.5 mph - N/A   Haze
6:53 PM 34.0 °F - 28.9 °F 82% 30.13 in 6.0 mi Calm Calm - N/A   Haze
7:04 PM 34.0 °F - 28.9 °F 82% 30.11 in 5.0 mi Calm Calm - 0.00 in   Overcast
7:44 PM 34.0 °F - 28.9 °F 82% 30.12 in 4.0 mi Calm Calm - 0.00 in   Overcast
7:53 PM 33.1 °F 30.0 °F 30.0 °F 89% 30.13 in 4.0 mi ENE 3.5 mph - 0.00 in   Overcast
8:38 PM 33.1 °F 27.7 °F 30.9 °F 92% 30.07 in 2.5 mi ENE 5.8 mph - 0.01 in   Mostly Cloudy
8:48 PM 33.8 °F 30.8 °F 30.2 °F 87% 30.07 in 4.0 mi ENE 3.5 mph - 0.01 in   Scattered Clouds
8:53 PM 34.0 °F - 32.0 °F 92% 30.09 in 4.0 mi Calm Calm - 0.01 in   Scattered Clouds
9:53 PM 34.0 °F 28.0 °F 30.9 °F 89% 30.06 in 4.0 mi ENE 6.9 mph - N/A   Overcast
10:53 PM 34.0 °F 29.8 °F 32.0 °F 92% 30.05 in 5.0 mi East 4.6 mph - N/A   Partly Cloudy
11:53 PM 34.0 °F 25.5 °F 30.9 °F 89% 30.02 in 5.0 mi ENE 11.5 mph - N/A   Partly Cloudy